Wind_Speed
28 29 30 30 32 32 29 29 29 28 29 29 29 29 30 32 33 30 28 28 29 29 30 30 29 30 31 31 30 30 30 29 27 28 28 26 25 26 26 25 25 24
26 27 28 29 31 32 30 29 28 28 30 30 29 28 29 31 33 31 28 28 28 29 29 27 24 25 30 32 31 31 32 31 29 29 29 27 26 27 26 25 25 25
25 26 27 28 31 32 32 30 29 29 30 31 30 29 29 29 31 30 28 27 27 28 29 28 26 24 28 30 31 31 31 30 30 30 30 28 27 27 26 26 26 27
25 25 25 27 29 31 32 31 31 31 31 32 33 32 30 30 30 30 29 27 27 28 29 29 28 26 27 29 30 31 30 29 29 30 30 28 27 27 26 26 26 27
23 23 24 25 28 30 31 32 32 31 31 33 34 34 32 30 30 31 30 30 28 29 30 31 30 29 28 29 30 30 30 30 30 30 29 29 27 26 26 26 26 27
24 24 24 24 26 28 29 31 32 32 30 31 33 35 33 29 28 29 30 30 28 28 30 30 30 31 30 29 30 32 33 32 31 29 29 29 28 27 27 26 26 27
26 26 26 25 25 26 26 29 31 31 28 29 32 34 33 30 27 26 27 29 28 27 28 28 28 30 30 28 30 34 36 34 31 30 29 29 29 28 27 27 27 28
25 26 26 25 24 24 24 25 26 25 25 28 31 31 31 30 28 26 26 27 27 27 28 28 28 29 28 28 29 32 35 35 32 30 29 29 30 30 29 29 29 29
24 25 25 24 23 24 23 21 20 21 23 27 29 27 28 29 28 28 28 27 27 27 27 28 29 29 28 29 30 31 34 34 31 29 30 31 32 32 31 31 30 29
24 24 24 22 22 23 23 20 18 20 22 25 27 27 27 28 27 27 26 27 27 27 27 28 29 29 30 30 31 32 33 31 29 30 32 33 32 32 31 31 30 29
24 24 24 23 22 22 22 20 18 18 20 22 24 25 25 26 27 26 25 25 26 25 27 29 29 29 29 29 31 33 32 30 28 30 31 32 33 32 31 30 30 30
25 25 24 23 22 22 22 21 18 16 17 19 20 22 23 25 26 26 27 27 26 24 26 28 29 29 29 30 31 34 34 32 29 30 31 33 33 32 31 31 31 31
25 25 25 24 23 22 22 21 19 16 16 17 18 19 22 25 26 28 29 29 28 27 26 28 29 29 30 31 32 33 36 36 33 32 34 34 33 31 31 32 32 31
24 25 25 25 24 24 23 22 21 19 17 17 17 17 19 22 25 28 29 29 29 29 29 29 29 31 32 31 31 32 34 36 35 34 34 33 32 31 32 32 31 31
23 24 25 25 24 24 24 23 22 22 21 20 19 18 19 20 23 27 29 29 28 30 31 30 29 31 33 32 31 32 33 35 35 34 34 34 33 34 35 34 32 32
25 24 24 24 24 24 24 24 23 22 22 22 21 19 19 20 22 25 28 29 29 30 30 30 29 30 32 33 33 32 32 35 36 36 35 35 35 36 36 35 34 32
27 26 24 23 23 23 24 24 24 23 22 23 23 21 20 20 22 24 26 28 29 29 30 29 29 30 31 33 34 34 33 34 35 37 36 35 34 35 35 35 35 34
29 29 26 24 23 23 24 24 24 23 23 23 23 23 22 21 20 21 24 25 26 28 29 29 30 31 32 33 34 36 36 35 36 38 37 35 33 34 34 35 35 35
30 30 29 27 25 24 24 24 25 24 24 23 23 24 24 22 21 20 21 24 25 27 28 29 29 29 30 32 34 37 37 36 37 39 37 34 33 34 34 35 35 35
30 31 31 30 27 25 24 24 24 25 25 24 24 24 24 24 24 22 21 22 24 26 28 28 28 28 27 28 30 32 33 33 34 36 35 34 34 34 35 35 35 34
30 31 32 32 30 27 25 24 24 24 25 25 25 25 25 26 26 26 25 23 23 26 28 29 30 30 30 28 28 28 29 30 31 33 34 35 35 35 35 35 35 35
30 31 32 33 32 30 28 26 25 24 24 25 25 25 26 26 27 27 27 27 26 27 29 30 31 32 33 33 32 31 30 31 33 34 35 36 36 36 36 35 35 36
30 30 31 32 33 32 30 28 27 26 25 25 25 26 26 27 27 27 27 28 29 30 31 31 31 32 34 36 36 34 33 33 35 36 36 37 37 37 36 35 36 36
31 31 30 31 32 33 32 30 29 29 28 27 26 26 26 27 27 27 28 29 31 32 33 33 33 33 34 35 36 35 34 35 37 37 36 36 37 37 36 35 36 36
32 31 31 30 31 33 33 33 31 30 30 29 28 27 27 27 28 28 29 29 31 33 34 35 36 35 34 34 35 35 35 36 38 38 36 35 36 36 36 36 37 38
34 33 32 31 31 32 33 33 33 32 31 30 29 28 28 28 29 29 30 31 33 34 35 36 37 37 36 35 36 36 37 39 40 40 38 36 35 35 36 37 38 39
Wind_Direction
284 280 276 273 272 272 270 269 269 265 261 261 259 255 253 251 252 254 256 257 255 254 257 257 249 241 233 225 226 229 230 233 234 233 233 230 232 233 231 232 234 235
286 280 274 268 265 266 265 263 264 263 259 258 258 256 253 252 251 251 254 255 254 255 256 259 258 245 232 226 227 229 231 235 234 233 233 229 229 233 232 232 234 235
287 283 276 267 263 263 262 259 259 261 260 257 254 252 251 252 249 246 249 252 252 251 249 253 256 241 227 226 228 230 233 235 234 234 235 234 231 232 232 233 236 237
288 286 283 276 269 265 262 258 257 259 260 257 251 246 246 250 248 246 249 251 252 250 245 247 247 233 224 227 230 232 235 235 234 233 235 238 237 234 233 234 237 241
289 288 289 287 280 272 264 258 257 256 255 253 247 243 244 248 249 248 250 252 253 250 245 245 242 230 225 228 232 235 236 233 232 231 234 237 237 237 237 235 238 242
288 290 293 295 293 284 269 259 257 254 252 246 239 238 242 247 250 247 247 252 254 251 247 246 241 231 226 227 231 234 235 233 231 229 232 236 238 239 239 236 236 238
285 287 290 295 298 292 276 262 256 252 248 240 232 234 240 245 248 247 247 251 253 252 251 248 241 235 230 228 230 232 233 232 229 225 227 234 237 237 236 236 236 236
286 286 289 292 296 295 283 268 257 248 241 233 229 233 240 245 247 247 246 248 249 251 252 248 243 238 232 228 231 234 234 231 228 226 228 232 232 231 233 236 238 237
289 289 291 292 294 295 287 275 262 248 239 233 232 236 241 245 246 245 243 243 243 246 246 242 241 238 232 229 232 235 235 231 227 228 232 232 229 229 232 235 236 237
286 287 289 291 292 294 292 283 269 255 245 240 241 243 244 245 246 244 244 240 238 240 241 237 237 237 234 233 234 236 235 230 225 228 232 231 228 229 231 233 235 236
282 282 284 285 286 289 291 288 277 261 250 246 247 247 246 249 249 247 245 241 236 238 241 238 237 237 235 234 237 240 239 233 227 228 231 232 231 231 233 234 235 236
280 278 279 281 281 282 284 287 282 266 253 249 251 251 252 255 254 248 246 242 237 238 241 239 236 234 232 232 236 241 241 236 229 227 230 233 233 233 233 234 236 236
282 279 278 279 280 279 279 281 281 274 259 253 255 259 259 257 253 247 245 244 240 238 241 240 234 230 229 230 232 237 238 233 228 228 230 232 233 234 234 235 236 235
283 280 279 278 279 280 279 278 279 277 269 260 259 264 267 263 255 248 246 246 243 240 240 240 235 230 230 231 232 236 237 232 228 230 231 232 233 233 234 237 237 236
284 281 279 279 279 280 280 278 277 277 275 271 267 266 269 269 263 253 247 245 244 241 240 240 239 234 233 232 232 236 238 234 231 231 232 232 232 231 232 235 237 238
285 283 281 280 280 279 280 279 277 275 274 274 272 269 267 269 267 260 249 243 242 241 239 240 241 239 237 235 233 236 239 237 234 233 232 232 232 233 233 235 237 239
286 285 284 283 283 281 279 279 278 275 273 272 272 271 269 268 268 262 250 241 241 241 239 240 242 242 242 239 236 235 238 238 236 234 233 233 234 236 236 237 238 238
285 285 285 285 286 286 283 280 278 277 274 272 272 271 269 268 269 262 247 237 237 240 240 241 243 244 244 242 239 237 237 238 238 235 233 233 235 237 238 238 239 240
283 284 284 285 285 286 285 282 279 278 276 274 273 271 269 267 266 261 247 235 235 238 239 241 243 244 243 240 238 237 236 236 237 234 230 231 234 237 239 240 241 242
282 282 282 283 283 284 285 283 280 278 277 276 274 272 269 265 261 257 250 242 238 239 240 241 241 242 241 239 237 236 236 236 235 233 231 232 235 238 241 242 244 245
281 280 280 280 280 281 283 283 282 279 276 275 275 273 271 268 263 257 253 250 245 243 243 243 242 242 241 240 238 237 238 238 237 236 235 237 238 240 243 245 246 247
279 279 278 279 279 279 280 282 282 280 276 274 273 273 273 271 268 263 258 254 250 247 245 245 245 246 246 243 241 240 241 242 241 239 239 240 241 243 245 247 248 248
278 277 276 277 278 278 278 279 281 281 279 275 272 271 271 271 271 269 263 258 254 250 248 247 247 248 248 246 244 241 241 242 242 240 240 243 245 246 247 249 250 250
277 276 275 275 276 278 278 278 278 279 279 277 274 271 269 269 269 268 266 262 258 254 250 247 246 247 247 246 244 242 241 242 242 240 241 244 246 247 248 250 251 250
277 277 276 274 274 275 277 277 277 277 277 277 276 273 270 268 267 266 264 262 260 256 252 248 246 247 247 247 245 242 241 243 242 240 241 244 246 247 248 249 250 250
278 277 276 274 272 272 274 276 277 276 275 274 275 274 271 269 267 265 262 260 258 257 253 249 248 248 248 249 248 243 240 242 243 242 241 244 246 247 248 248 249 251
Height
5771 5770 5770 5770 5769 5768 5767 5766 5765 5765 5766 5767 5768 5769 5770 5769 5769 5771 5772 5772 5772 5772 5772 5771 5772 5773 5775 5776 5777 5779 5781 5782 5784 5785 5787 5790 5791 5792 5794 5796 5797 5798
5767 5766 5765 5765 5765 5763 5762 5761 5760 5760 5761 5763 5763 5764 5764 5765 5766 5767 5768 5768 5769 5769 5769 5769 5770 5771 5772 5773 5774 5776 5778 5779 5781 5783 5784 5787 5788 5790 5791 5793 5794 5795
5763 5762 5761 5760 5760 5758 5757 5756 5756 5755 5756 5758 5759 5758 5759 5760 5762 5763 5764 5765 5766 5766 5767 5767 5767 5768 5769 5770 5772 5773 5775 5777 5778 5780 5782 5784 5785 5786 5788 5790 5791 5792
5760 5758 5757 5756 5754 5753 5752 5751 5751 5751 5752 5753 5754 5754 5754 5756 5758 5759 5761 5762 5763 5763 5764 5764 5764 5765 5767 5767 5769 5770 5772 5774 5775 5777 5779 5781 5782 5784 5785 5786 5788 5789
5756 5755 5753 5752 5750 5748 5747 5747 5746 5746 5747 5747 5748 5750 5750 5751 5754 5756 5757 5758 5759 5759 5760 5760 5761 5763 5764 5764 5766 5768 5769 5771 5772 5773 5775 5777 5779 5782 5783 5784 5785 5787
5753 5752 5750 5749 5747 5745 5744 5743 5742 5742 5741 5741 5743 5745 5747 5747 5749 5752 5753 5753 5754 5755 5756 5757 5758 5759 5761 5762 5763 5765 5766 5768 5770 5771 5772 5775 5777 5778 5779 5781 5782 5784
5751 5749 5748 5746 5744 5742 5740 5739 5738 5737 5737 5737 5739 5742 5744 5745 5746 5748 5748 5749 5751 5752 5753 5754 5755 5756 5758 5759 5761 5762 5763 5764 5766 5767 5769 5773 5775 5774 5775 5777 5779 5780
5748 5746 5745 5744 5742 5740 5737 5736 5735 5734 5734 5734 5736 5739 5742 5743 5744 5745 5744 5745 5747 5749 5750 5752 5753 5754 5756 5757 5758 5759 5760 5761 5763 5765 5767 5771 5772 5771 5772 5775 5775 5776
5745 5744 5742 5741 5740 5738 5736 5734 5733 5732 5732 5732 5735 5737 5739 5740 5740 5741 5741 5742 5744 5745 5747 5749 5750 5752 5754 5755 5755 5756 5757 5759 5761 5763 5765 5767 5767 5768 5770 5772 5772 5773
5742 5741 5740 5739 5738 5736 5734 5732 5731 5730 5730 5732 5734 5736 5736 5737 5737 5738 5738 5739 5740 5742 5744 5746 5747 5749 5751 5752 5752 5753 5754 5757 5759 5760 5761 5762 5764 5765 5767 5768 5769 5771
5740 5738 5737 5736 5735 5734 5733 5731 5729 5728 5728 5730 5732 5733 5734 5734 5734 5736 5737 5737 5737 5739 5740 5742 5744 5745 5748 5750 5750 5750 5751 5754 5755 5755 5756 5758 5760 5761 5763 5765 5766 5768
5736 5736 5735 5734 5733 5732 5731 5730 5728 5726 5726 5727 5729 5730 5731 5731 5731 5733 5734 5734 5734 5736 5737 5739 5740 5742 5744 5747 5748 5748 5748 5750 5751 5752 5753 5755 5757 5758 5760 5762 5763 5765
5733 5732 5732 5731 5730 5730 5729 5728 5727 5725 5725 5725 5726 5727 5727 5727 5728 5729 5730 5730 5731 5732 5733 5734 5736 5739 5740 5742 5744 5745 5745 5746 5748 5749 5750 5752 5754 5756 5757 5758 5760 5762
5730 5729 5729 5728 5728 5727 5726 5725 5725 5724 5723 5723 5723 5724 5723 5723 5723 5724 5726 5727 5728 5729 5729 5730 5733 5735 5736 5738 5740 5741 5742 5743 5745 5746 5747 5749 5751 5753 5753 5755 5757 5758
5728 5727 5726 5725 5725 5724 5723 5723 5722 5722 5721 5721 5720 5720 5720 5719 5719 5720 5722 5723 5724 5725 5726 5727 5730 5731 5733 5734 5736 5737 5738 5739 5741 5742 5744 5745 5747 5749 5749 5751 5753 5754
5725 5724 5723 5722 5722 5721 5720 5720 5720 5719 5719 5718 5718 5717 5717 5716 5715 5716 5717 5719 5720 5721 5722 5724 5726 5728 5729 5730 5731 5733 5734 5735 5737 5739 5740 5741 5743 5744 5746 5747 5749 5749
5721 5721 5720 5720 5719 5718 5717 5716 5716 5716 5716 5715 5715 5714 5714 5713 5712 5712 5713 5715 5716 5717 5719 5720 5722 5723 5725 5726 5727 5729 5730 5732 5733 5734 5736 5737 5739 5741 5742 5743 5744 5745
5717 5717 5717 5717 5716 5715 5714 5713 5713 5713 5713 5713 5712 5712 5712 5711 5710 5709 5709 5711 5713 5715 5715 5717 5718 5719 5721 5722 5723 5724 5726 5728 5729 5730 5732 5733 5735 5737 5738 5739 5741 5742
5714 5713 5713 5713 5713 5712 5710 5710 5709 5709 5709 5709 5709 5709 5709 5709 5708 5707 5707 5708 5710 5711 5712 5713 5714 5715 5716 5717 5719 5720 5722 5724 5725 5727 5728 5730 5732 5733 5735 5736 5737 5738
5710 5709 5708 5708 5709 5708 5707 5707 5706 5706 5706 5706 5706 5705 5705 5705 5705 5705 5705 5705 5707 5708 5709 5709 5710 5711 5712 5713 5714 5716 5718 5720 5721 5723 5724 5726 5728 5729 5730 5732 5733 5734
5707 5706 5704 5704 5704 5705 5704 5703 5703 5703 5702 5702 5702 5702 5702 5701 5701 5702 5702 5702 5704 5705 5705 5705 5706 5707 5708 5709 5711 5712 5714 5716 5717 5719 5721 5722 5724 5725 5726 5728 5729 5731
5704 5703 5701 5699 5699 5700 5700 5700 5699 5699 5699 5699 5699 5699 5698 5698 5698 5698 5698 5699 5700 5701 5701 5702 5703 5704 5705 5706 5707 5708 5710 5712 5713 5715 5717 5718 5720 5721 5722 5724 5726 5727
5700 5699 5698 5696 5695 5695 5696 5696 5696 5696 5696 5695 5695 5695 5695 5694 5695 5695 5695 5696 5696 5696 5697 5698 5700 5701 5701 5702 5703 5705 5706 5708 5709 5710 5712 5714 5716 5717 5718 5720 5721 5724
5696 5696 5695 5694 5692 5691 5691 5691 5691 5691 5691 5692 5692 5692 5691 5691 5691 5691 5692 5692 5692 5692 5693 5695 5696 5697 5697 5697 5699 5701 5702 5703 5705 5706 5708 5710 5711 5713 5714 5716 5717 5719
5691 5691 5691 5690 5689 5688 5687 5686 5687 5687 5687 5687 5687 5688 5687 5687 5687 5687 5688 5688 5688 5688 5689 5690 5691 5691 5692 5693 5695 5697 5698 5699 5700 5702 5704 5705 5707 5708 5710 5711 5712 5714
5686 5686 5686 5686 5686 5685 5684 5682 5682 5682 5683 5683 5683 5683 5683 5683 5683 5683 5683 5683 5683 5683 5684 5685 5686 5687 5688 5689 5691 5692 5694 5695 5696 5698 5699 5700 5702 5703 5704 5706 5707 5709